This demonstration page uses our WeatherBlox Daily Observations layout. Learn more.

Left ArrowRight Arrow

Hourly Observations for August 30, 2021

Temp ( °F °C ) Dew Point ( °F °C ) Humidity (%) Winds ( mph kmh ) Pressure ( in mb ) Visibility ( mi km ) Precip ( " mm )
12:15 am 00:15 Partly Cloudy 71 21.9 70 21.2 96 96 SW 3 6 30.02 1017 10 16 0.00 0.00
12:35 am 00:35 Clear with Nearby Thunderstorms 72 22 70 21 94 94 Calm 30.02 1017 10 16 0.00 0.00
12:55 am 00:55 Partly Cloudy with Nearby Thunderstorms 72 22.1 70 21.1 94 94 Calm 30.03 1017 10 16 0.00 0.00
1:15 am 01:15 Mostly Cloudy 72 22 70 21.3 96 96 Calm 30.03 1017 10 16 0.00 0.00
1:35 am 01:35 Cloudy with Thunderstorms 73 22.7 70 21.2 91 91 W 5 7 30.02 1017 10 16 0.00 0.00
1:55 am 01:55 Partly Cloudy with Nearby Thunderstorms 72 22.1 70 21.2 95 95 Calm 30.01 1016 10 16 0.00 0.00
2:15 am 02:15 Mostly Cloudy with Thunderstorms 71 21.7 70 21.2 97 97 N 3 6 30.02 1017 10 16 0.00 0.00
2:35 am 02:35 Cloudy 71 21.9 70 21.1 95 95 NW 3 6 30.01 1016 10 16 0.00 0.00
2:55 am 02:55 Cloudy with Nearby Thunderstorms 72 22 70 21 94 94 SSW 3 6 30.00 1016 10 16 0.00 0.00
3:15 am 03:15 Partly Cloudy with Nearby Thunderstorms 71 21.6 69 20.8 95 95 Calm 29.99 1016 10 16 0.00 0.00
3:35 am 03:35 Partly Cloudy with Nearby Thunderstorms 70 21 69 20.7 98 98 Calm 30.00 1016 7 11 0.00 0.00
3:55 am 03:55 Mostly Cloudy with Thunderstorms 70 21 69 20.7 98 98 N 5 7 30.01 1016 7 11 0.00 0.00
4:15 am 04:15 Cloudy 71 21.7 68 20 90 90 N 3 6 30.01 1016 10 16 0.00 0.00
4:35 am 04:35 Partly Cloudy 70 20.9 68 20 95 95 Calm 30.00 1016 10 16 0.00 0.00
4:55 am 04:55 Partly Cloudy with Light Rain 69 20.5 68 20 97 97 Calm 30.00 1016 10 16 0.00 0.00
5:15 am 05:15 Mostly Cloudy 68 20.2 68 20 99 99 Calm 30.01 1016 10 16 0.00 0.00
5:35 am 05:35 Mostly Cloudy with Nearby Thunderstorms 68 20.2 68 19.8 98 98 Calm 30.01 1016 10 16 0.00 0.00
5:55 am 05:55 Partly Cloudy 68 20 67 19.7 98 98 Calm 30.01 1016 10 16 0.00 0.00
6:15 am 06:15 Clear 67 19.7 67 19.5 99 99 Calm 30.00 1016 10 16 0.00 0.00
6:35 am 06:35 Clear 67 19.7 67 19.5 99 99 Calm 30.00 1016 10 16 0.00 0.00
6:55 am 06:55 Clear 67 19.5 67 19.2 98 98 Calm 29.99 1016 10 16 0.00 0.00
7:15 am 07:15 Sunny 68 19.9 67 19.7 99 99 S 3 6 30.00 1016 10 16 0.00 0.00
7:35 am 07:35 Sunny with Mist and Fog 68 19.9 67 19.6 98 98 Calm 30.01 1016 5 8 0.00 0.00
7:55 am 07:55 Sunny with Mist and Fog 67 19.7 67 19.5 99 99 Calm 30.01 1016 5 8 0.00 0.00
8:15 am 08:15 Sunny with Mist and Fog 69 20.4 69 20.3 99 99 Calm 30.01 1016 5 8 0.00 0.00
8:35 am 08:35 Partly Cloudy with Mist and Fog 70 21.2 70 21 99 99 Calm 30.00 1016 5 8 0.00 0.00
8:55 am 08:55 Mostly Cloudy 72 22 71 21.4 96 96 ESE 3 6 30.00 1016 7 11 0.00 0.00
9:15 am 09:15 Mostly Cloudy 72 22.4 71 21.6 95 95 ESE 3 6 29.99 1016 7 11 0.00 0.00
9:35 am 09:35 Mostly Cloudy 74 23.1 71 21.8 92 92 S 3 6 30.00 1016 10 16 0.00 0.00
9:55 am 09:55 Mostly Cloudy 74 23.3 71 21.8 91 91 S 3 6 30.00 1016 10 16 0.00 0.00
10:15 am 10:15 Cloudy 75 23.8 71 21.9 89 89 SSE 3 6 29.99 1016 10 16 0.00 0.00
10:35 am 10:35 Cloudy 75 24.1 72 22 88 88 S 5 7 29.99 1016 10 16 0.00 0.00
10:55 am 10:55 Cloudy 75 24 71 21.7 87 87 S 5 7 29.99 1016 10 16 0.00 0.00
11:15 am 11:15 Cloudy 77 24.8 72 22.3 86 86 SSE 3 6 29.99 1016 10 16 0.00 0.00
11:35 am 11:35 Cloudy 77 24.8 72 22.3 86 86 SSE 5 7 29.99 1016 10 16 0.00 0.00
11:55 am 11:55 Cloudy 77 25.2 72 22.3 84 84 SSE 6 9 29.99 1016 10 16 0.00 0.00
12:15 pm 12:15 Cloudy 79 26 72 22.3 80 80 S 5 7 29.97 1015 10 16 0.00 0.00
12:35 pm 12:35 Cloudy 78 25.5 72 22.1 82 82 SSE 3 6 29.97 1015 10 16 0.00 0.00
12:55 pm 12:55 Cloudy 77 25.1 72 22 83 83 S 5 7 29.96 1015 10 16 0.00 0.00
1:15 pm 13:15 Partly Cloudy 80 26.6 73 22.5 78 78 SSW 5 7 29.94 1014 10 16 0.00 0.00
1:35 pm 13:35 Partly Cloudy 81 27.3 73 22.9 77 77 SSW 6 9 29.92 1013 10 16 0.00 0.00
1:55 pm 13:55 Mostly Cloudy 81 27.4 73 22.6 75 75 S 6 9 29.91 1013 10 16 0.00 0.00
2:15 pm 14:15 Cloudy 82 27.7 73 22.6 74 74 S 7 11 29.90 1013 10 16 0.00 0.00
2:35 pm 14:35 Mostly Cloudy 80 26.6 72 22.2 77 77 S 6 9 29.90 1013 10 16 0.00 0.00
2:55 pm 14:55 Mostly Cloudy 79 26.2 72 22.3 79 79 S 6 9 29.91 1013 10 16 0.00 0.00
3:15 pm 15:15 Mostly Cloudy with Nearby Thunderstorms 78 25.5 73 22.5 84 84 SSW 7 11 29.91 1013 10 16 0.00 0.00
3:35 pm 15:35 Cloudy with Thunderstorms 77 25 73 22.7 87 87 Calm 29.92 1013 7 11 0.00 0.00
3:55 pm 15:55 Mostly Cloudy with Thunderstorms 76 24.2 73 22.8 92 92 Calm 29.91 1013 7 11 0.01 0.25
4:15 pm 16:15 Mostly Cloudy with Thunderstorms 75 24.1 74 23.1 94 94 Calm 29.90 1013 7 11 0.00 0.00
4:35 pm 16:35 Cloudy with Nearby Thunderstorms 75 24 74 23.3 96 96 Calm 29.90 1013 4 6 0.02 0.51
4:55 pm 16:55 Cloudy with Light Rain 73 22.5 71 21.5 94 94 W 5 7 29.91 1013 5 8 0.03 0.76
5:15 pm 17:15 Partly Cloudy 71 21.7 69 20.5 93 93 W 5 7 29.90 1013 10 16 0.00 0.00
5:35 pm 17:35 Mostly Cloudy 71 21.8 69 20.6 93 93 Calm 29.90 1013 10 16 0.00 0.00
5:55 pm 17:55 Partly Cloudy 71 21.8 69 20.5 92 92 Calm 29.89 1012 10 16 0.00 0.00
6:15 pm 18:15 Sunny 71 21.9 69 20.4 91 91 Calm 29.88 1012 10 16 0.00 0.00
6:35 pm 18:35 Partly Cloudy 71 21.6 69 20.6 94 94 W 3 6 29.89 1012 10 16 0.00 0.00
6:55 pm 18:55 Partly Cloudy 71 21.6 68 20.2 92 92 Calm 29.88 1012 10 16 0.00 0.00
7:15 pm 19:15 Partly Cloudy 71 21.5 68 20.2 92 92 Calm 29.88 1012 10 16 0.00 0.00
7:35 pm 19:35 Partly Cloudy 70 21.3 69 20.4 95 95 Calm 29.88 1012 10 16 0.00 0.00
7:55 pm 19:55 Partly Cloudy 70 21.2 69 20.5 96 96 Calm 29.89 1012 10 16 0.00 0.00
8:15 pm 20:15 Mostly Cloudy 70 21 68 19.8 93 93 WSW 3 6 29.90 1013 10 16 0.00 0.00
8:35 pm 20:35 Partly Cloudy 69 20.6 68 20 96 96 WSW 5 7 29.91 1013 10 16 0.00 0.00
8:55 pm 20:55 Clear 69 20.3 67 19.5 95 95 Calm 29.92 1013 10 16 0.00 0.00
9:15 pm 21:15 Clear 68 20.1 67 19.5 96 96 Calm 29.93 1013 10 16 0.00 0.00
9:35 pm 21:35 Clear 68 20 67 19.3 96 96 Calm 29.93 1013 10 16 0.00 0.00
9:55 pm 21:55 Partly Cloudy 68 20 67 19.3 96 96 W 3 6 29.93 1013 10 16 0.00 0.00
10:15 pm 22:15 Partly Cloudy 68 19.9 67 19.3 96 96 Calm 29.93 1013 10 16 0.00 0.00
10:35 pm 22:35 Clear 67 19.6 67 19.3 98 98 Calm 29.92 1013 10 16 0.00 0.00
10:55 pm 22:55 Clear 67 19.6 67 19.3 98 98 Calm 29.92 1013 7 11 0.00 0.00
11:15 pm 23:15 Clear 67 19.6 67 19.3 98 98 Calm 29.91 1013 10 16 0.00 0.00
11:35 pm 23:35 Clear 67 19.5 67 19.2 98 98 Calm 29.91 1013 10 16 0.00 0.00
11:55 pm 23:55 Clear 67 19.5 66 19.1 98 98 Calm 29.91 1013 10 16 0.00 0.00

Powered by AerisWeather